Location: Cheching
(60.0667°N, 164.2167°W)
Time: 11:07:42
(UTC+00:00)

UNISAT 6 - Pass Details

Date: 16 January 2021
Orbit: 607 x 687 km, 97.7° (Epoch: 24 February)

Event Time Altitude Azimuth Distance (km) Brightness Sun altitude
Rises 16:18:49 0° 132° (SE) 2,867 ? -23.9°
Reaches altitude 10° 16:21:07 10° 124° (ESE) 1,970 ? -23.6°
Maximum altitude 16:24:58 34° 59° (ENE) 1,028 ? -23.1°
Drops below altitude 10° 16:28:53 10° 355° (N) 2,006 ? -22.6°
Enters shadow 16:29:09 - 354° (N) 2,105 ? -22.6°
